Location: The Saddle
(36.8333°N, 80.3417°W)
Time: 15:14:55
(UTC-05:00)

A-11 Canister half - Pass Details

Date: 11 December 2023
Orbit: 1526 x 1682 km, 47.3° (Epoch: 01 March)

Event Time Altitude Azimuth Distance (km) Brightness Sun altitude
Rises 23:03:21 0° 301° (WNW) 4,931 11.9 -69.3°
Enters shadow 23:05:19 - 302° (WNW) 4,316 11.6 -69.7°
Reaches altitude 10° 23:06:33 10° 303° (WNW) 3,932 - -69.8°
Maximum altitude 23:16:41 78° 30° (NNE) 1,675 - -71.4°
Drops below altitude 10° 23:26:29 10° 117° (ESE) 3,816 - -72.7°
Sets 23:29:33 0° 119° (ESE) 4,779 - -73.1°
